GAOFEN-1

Last updated on Mon Oct 27 2025 00:02:30 GMT+0000 (Coordinated Universal Time)

1 39150U 13018A 25299.53536059 .00001110 00000+0 16624-3 0 9998 2 39150 97.9375 11.0163 0016787 301.1479 58.8084 14.76524222673763
UTC large
Height (km)
Speed (km/s)
/
Latitude / Longitude
Inclination (degrees)
Orbital Period (minutes)
Azimuth
Elevation
Range (km)
Doppler Factor

Next 0 passes for location: London (51.5072 / 0.1276)

Sorry there are no passes over London.